Marianna, WV

10:41 PM EST on January 20, 2017 (GMT -0500)
Pineville

Weather History for KI16 - March, 2013

Change the Weather History Date:

Monday, March 11, 2013

  Actual Average (KBKW) Record (KBKW)
Temperature  
Mean Temperature 56 °F -  
Max Temperature 63 °F 50 °F 74 °F (1990)
Min Temperature 48 °F 31 °F 7 °F (1934)
Degree Days  
Heating Degree Days 10    
Growing Degree Days 6 (Base 50)    
Moisture  
Dew Point 45 °F    
Average Humidity 68    
Maximum Humidity 100    
Minimum Humidity 49    
Precipitation  
Precipitation 0.00 in - - ()
Sea Level Pressure  
Sea Level Pressure 29.95 in    
Wind  
Wind Speed - (North)    
Max Wind Speed -    
Max Gust Speed -    
Visibility 9 miles    
Events Rain    
Averages and records for this station are not official NWS values.
T = Trace of Precipitation, MM = Missing Value Source: NWS Daily Summary

Daily Weather History Graph

Daily Weather History Graph

Search for Another Location

Airport or City:

Trip Planner

Search our weather history database for the weather conditions in past years. The results will help you decide how hot, cold, wet, or windy it might be!

Date:

Astronomy

Mar. 11, 2013 Rise Set
Actual Time 7:42 AM EDT 7:29 PM EDT
Civil Twilight 7:16 AM EDT 7:56 PM EDT
Nautical Twilight 6:46 AM EDT 8:26 PM EDT
Astronomical Twilight 6:16 AM EDT 8:57 PM EDT
Moon 7:16 AM EDT (3/11) 7:39 PM EDT (3/11)
Length of Visible Light 12h 39m
Length of Day
11h 47m
Waning Crescent, 0% of the Moon is Illuminated
Mar 11
Waning Crescent
Mar 11
New
Mar 19
First Quarter
Mar 27
Full
Apr 3
Last Quarter

Hourly Weather History & Observations

Time (EDT) Temp. Dew Point Humidity Pressure Visibility Wind Dir Wind Speed Gust Speed Precip Events Conditions
12:15 AM 49.6 °F 38.7 °F 66% 30.11 in 10.0 mi North - - N/A   Clear
12:35 AM 48.7 °F 38.7 °F 68% 30.11 in 10.0 mi North - - N/A   Clear
1:15 AM 48.4 °F 38.7 °F 69% 30.10 in 10.0 mi North - - N/A   Clear
1:35 AM 49.8 °F 38.1 °F 64% 30.09 in 10.0 mi North - - N/A   Clear
1:55 AM 54.0 °F 36.7 °F 52% 30.08 in 10.0 mi North - - N/A   Clear
2:15 AM 53.4 °F 37.6 °F 55% 30.08 in 10.0 mi North - - N/A   Clear
2:35 AM 53.4 °F 37.9 °F 56% 30.07 in 10.0 mi North - - N/A   Clear
3:15 AM 50.5 °F 39.2 °F 65% 30.05 in 10.0 mi North - - N/A   Clear
3:35 AM 51.1 °F 38.7 °F 63% 30.04 in 10.0 mi North - - N/A   Clear
3:55 AM 51.8 °F 38.3 °F 60% 30.04 in 10.0 mi North - - N/A   Clear
4:15 AM 49.6 °F 39.0 °F 67% 30.02 in 10.0 mi North - - N/A   Clear
4:35 AM 53.6 °F 36.5 °F 52% 30.00 in 10.0 mi North - - N/A   Clear
4:55 AM 55.2 °F 36.7 °F 50% 30.00 in 10.0 mi North - - N/A   Clear
5:15 AM 55.4 °F 37.0 °F 50% 30.00 in 10.0 mi North - - N/A   Clear
5:35 AM 55.9 °F 36.9 °F 49% 30.00 in 10.0 mi North - - N/A   Clear
5:55 AM 53.4 °F 37.9 °F 56% 30.00 in 10.0 mi North - - N/A   Clear
6:15 AM 54.3 °F 37.6 °F 53% 29.99 in 10.0 mi North - - N/A   Clear
6:35 AM 55.6 °F 37.9 °F 52% 29.99 in 10.0 mi North - - N/A   Clear
6:55 AM 54.0 °F 38.7 °F 56% 30.01 in 10.0 mi North - - N/A   Clear
7:15 AM 53.1 °F 39.2 °F 59% 30.01 in 10.0 mi North - - N/A   Clear
7:35 AM 49.5 °F 40.1 °F 70% 30.01 in 10.0 mi North - - N/A   Clear
7:55 AM 49.3 °F 40.3 °F 71% 30.02 in 10.0 mi North - - N/A   Clear
8:15 AM 48.2 °F 41.0 °F 76% 30.02 in 10.0 mi North - - N/A   Clear
8:35 AM 49.6 °F 41.7 °F 74% 30.03 in 10.0 mi North - - N/A   Clear
8:55 AM 51.4 °F 42.6 °F 72% 30.03 in 10.0 mi North - - N/A   Clear
9:15 AM 55.4 °F 43.0 °F 63% 30.02 in 10.0 mi North - - N/A   Clear
9:35 AM 54.7 °F 43.9 °F 67% 30.02 in 10.0 mi North - - N/A   Clear
9:55 AM 56.5 °F 44.6 °F 64% 30.02 in 10.0 mi North - - N/A   Clear
10:15 AM 56.8 °F 44.8 °F 64% 30.01 in 10.0 mi North - - N/A   Clear
10:35 AM 57.2 °F 45.0 °F 64% 30.01 in 10.0 mi North - - N/A   Clear
10:55 AM 57.4 °F 45.5 °F 65% 29.99 in 10.0 mi North - - N/A   Clear
11:15 AM 58.1 °F 45.5 °F 63% 29.98 in 10.0 mi North - - N/A   Clear
11:35 AM 57.7 °F 45.7 °F 64% 29.96 in 10.0 mi North - - N/A   Clear
11:55 AM 58.3 °F 45.5 °F 62% 29.95 in 10.0 mi North - - N/A   Clear
12:15 PM 59.4 °F 45.3 °F 60% 29.96 in 10.0 mi North - - N/A   Clear
12:35 PM 60.8 °F 45.1 °F 56% 29.96 in 10.0 mi North - - N/A   Clear
12:55 PM 61.2 °F 45.5 °F 56% 29.94 in 10.0 mi North - - N/A   Clear
1:15 PM 61.7 °F 45.7 °F 56% 29.94 in 10.0 mi North - - N/A   Clear
1:35 PM 61.7 °F 46.2 °F 57% 29.94 in 10.0 mi North - - N/A   Clear
2:15 PM 62.2 °F 46.6 °F 57% 29.91 in 10.0 mi North - - N/A   Scattered Clouds
2:35 PM 62.8 °F 46.9 °F 56% 29.89 in 10.0 mi North - - N/A   Scattered Clouds
2:55 PM 63.5 °F 47.3 °F 56% 29.87 in 10.0 mi North - - N/A   Scattered Clouds
3:15 PM 63.5 °F 46.9 °F 55% 29.86 in 10.0 mi North - - N/A   Scattered Clouds
3:35 PM 63.5 °F 46.9 °F 55% 29.86 in 10.0 mi North - - N/A   Mostly Cloudy
3:55 PM 63.5 °F 47.1 °F 55% 29.86 in 10.0 mi North - - N/A   Mostly Cloudy
4:15 PM 62.8 °F 46.8 °F 56% 29.85 in 10.0 mi North - - N/A   Mostly Cloudy
4:35 PM 62.6 °F 46.8 °F 56% 29.85 in 10.0 mi North - - N/A   Mostly Cloudy
4:55 PM 61.7 °F 46.8 °F 58% 29.83 in 10.0 mi North - - N/A   Mostly Cloudy
5:15 PM 61.7 °F 47.3 °F 59% 29.85 in 10.0 mi North - - N/A   Mostly Cloudy
5:35 PM 61.5 °F 47.7 °F 60% 29.86 in 10.0 mi North - - N/A   Overcast
5:55 PM 61.2 °F 47.8 °F 62% 29.86 in 10.0 mi North - - N/A Rain Light Rain
6:15 PM 60.1 °F 48.4 °F 65% 29.86 in 10.0 mi North - - N/A   Light Drizzle
6:35 PM 59.0 °F 49.5 °F 71% 29.87 in 10.0 mi North - - N/A Rain Light Rain
6:55 PM 57.0 °F 51.1 °F 81% 29.87 in 7.0 mi North - - N/A Rain Rain
7:15 PM 55.6 °F 51.8 °F 87% 29.89 in 7.0 mi North - - N/A Rain Rain
7:35 PM 54.3 °F 52.7 °F 94% 29.90 in 7.0 mi North - - N/A Rain Rain
7:55 PM 53.6 °F 52.7 °F 97% 29.91 in 4.0 mi North - - N/A Rain Rain
8:15 PM 53.6 °F 53.1 °F 98% 29.90 in 7.0 mi North - - N/A Rain Light Rain
8:35 PM 53.6 °F 53.2 °F 99% 29.90 in 7.0 mi North - - N/A Rain Light Rain
8:55 PM 53.6 °F 52.7 °F 97% 29.89 in 10.0 mi North - - N/A Rain Light Rain
9:15 PM 53.2 °F 52.7 °F 98% 29.87 in 10.0 mi North - - N/A Rain Light Rain
9:35 PM 53.6 °F 52.7 °F 97% 29.86 in 10.0 mi North - - N/A Rain Light Rain
9:55 PM 52.9 °F 52.2 °F 97% 29.87 in 7.0 mi North - - N/A   Light Drizzle
10:15 PM 52.0 °F 52.0 °F 100% 29.87 in 4.0 mi North - - N/A Rain Light Rain
10:35 PM 51.4 °F 51.4 °F 100% 29.87 in 5.0 mi North - - N/A Rain Light Rain
10:55 PM 51.3 °F 51.3 °F 100% 29.87 in 3.0 mi North - - N/A Rain Light Rain
11:15 PM 50.9 °F 50.9 °F 100% 29.86 in 4.0 mi North - - N/A   Overcast
11:35 PM 50.9 °F 50.9 °F 100% 29.86 in 5.0 mi North - - N/A   Overcast